We konden geen weer-waarchuwingen ophalen. Ga rechtstreeks naar de Meteoalarm site : www.meteoalarm.eu en controleer daar .



Onweer radar Meer informatie blitzortung!


Regen radar Meer informatie rain snow radar


Bezoek onze andere website:

Template documentation
and downloads

And another site



15 daagse weersverwachting Ålesund (NO)

  • Overzicht
  • Per uur
  • 15 dagen
  • Extra
  • Vergelijk
  • Kaarten
  • Dagkaart
  • Meer »
  • Info
  • Statistieken
  • Directe link
    Temp 6h Neerslag Wind  
 05:46     21:34    Daglengte: 15:48 Vandaag
14:00
11°
6.3 mm
5
20:00
12°
 
5
 05:49     21:31    Daglengte: 15:42 Morgen
02:00
11°
 
3
08:00
12°
 
2
14:00
15°
 
3
20:00
14°
 
1
 05:51     21:28    Daglengte: 15:37 Vrijdag 19 Aug
02:00
13°
 
3
08:00
14°
 
2
14:00
17°
1.8 mm
3
20:00
15°
7.9 mm
3
 05:54     21:25    Daglengte: 15:31 Zaterdag 20 Aug
02:00
13°
12.9 mm
2
08:00
13°
15.5 mm
2
Locatie info
Region: Møre og Romsdal
Latitude: 62.4715°N
Longitude: 6.1729°E
3 masl
Postcode: 6003
Temp/Neerslag /Baro Onweer/Dauwpunt
    Temp Baro 1h Neerslag Dauwpunt Wind UV Bewolking  
 05:46     21:34    Daglengte: 15:48 Vandaag
12:00
11°
1015.6 hPa 6.3 mm
49%
7.3°
5
Windvlaag: -6.6 m/s
83%
13:00
11°
1015.8 hPa
82%
6.8°
5
Windvlaag: -6.7 m/s
85%
14:00
11°
1016.1 hPa
82%
6.7°
5
Windvlaag: -6.1 m/s
80%
15:00
12°
1016.2 hPa
70%
6.8°
6
Windvlaag: -5.8 m/s
79%
16:00
12°
1016.4 hPa
23%
6.9°
6
Windvlaag: -5.7 m/s
71%
17:00
12°
1016.3 hPa
18%
7.0°
6
Windvlaag: -5.6 m/s
68%
18:00
12°
1016.6 hPa
15%
7.3°
6
Windvlaag: -5 m/s
72%
19:00
12°
1016.6 hPa
14%
7.4°
5
Windvlaag: -4.8 m/s
65%
20:00
12°
1016.6 hPa
15%
7.5°
5
Windvlaag: -4.2 m/s
65%
21:00
12°
1016.5 hPa
17%
7.7°
5
Windvlaag: -3.8 m/s
40%
22:00
12°
1016.4 hPa
17%
7.8°
5
Windvlaag: -3.4 m/s
23%
23:00
12°
1016.3 hPa
14%
8.0°
4
Windvlaag: -2.9 m/s
27%
 05:49     21:31    Daglengte: 15:42 Morgen
00:00
11°
1016.1 hPa
14%
8.1°
4
Windvlaag: -2.1 m/s
10%
01:00
11°
1015.7 hPa
14%
8.2°
4
Windvlaag: -1 m/s
7%
02:00
11°
1015.4 hPa
14%
8.2°
3
Windvlaag: -0.5 m/s
7%
03:00
11°
1014.9 hPa
14%
8.4°
3
Windvlaag: -0.4 m/s
5%
04:00
11°
1014.6 hPa
14%
8.6°
2
Windvlaag: -0.5 m/s
4%
05:00
11°
1014.3 hPa
14%
8.7°
2
Windvlaag: -1.2 m/s
5%
06:00
11°
1013.7 hPa
14%
8.8°
1
Windvlaag: 0 m/s
7%
07:00
11°
1013.5 hPa
14%
9.4°
2
Windvlaag: 2 m/s
12%
08:00
12°
1013.4 hPa
14%
9.8°
2
Windvlaag: 3.4 m/s
15%
09:00
13°
1013.2 hPa
14%
8.9°
2
Windvlaag: 2.6 m/s
42%
10:00
13°
1013.0 hPa
14%
8.2°
1
Windvlaag: 2.9 m/s
49%
11:00
14°
1012.8 hPa
14%
8.3°
2
Windvlaag: 2.6 m/s
41%
12:00
14°
1012.6 hPa
14%
8.6°
3
Windvlaag: 1.4 m/s
26%
13:00
15°
1012.5 hPa
14%
8.6°
3
Windvlaag: 1.1 m/s
54%
14:00
15°
1012.5 hPa
14%
9.1°
3
Windvlaag: 1.1 m/s
36%
15:00
15°
1012.3 hPa
14%
9.5°
4
Windvlaag: 2 m/s
64%
16:00
14°
1012.3 hPa
14%
9.6°
4
Windvlaag: 1.3 m/s
62%
17:00
14°
1012.3 hPa
15%
9.4°
4
Windvlaag: 0.5 m/s
82%
18:00
14°
1012.1 hPa
17%
9.3°
4
Windvlaag: 0.6 m/s
83%
19:00
14°
1011.9 hPa
18%
9.5°
2
Windvlaag: 0.5 m/s
84%
20:00
14°
1011.8 hPa
16%
9.8°
1
Windvlaag: 0.6 m/s
79%
21:00
13°
1012.0 hPa
56%
10.1°
2
Windvlaag: 1.1 m/s
59%
22:00
13°
1012.0 hPa
18%
10.5°
2
Windvlaag: 0.4 m/s
49%
23:00
13°
1011.9 hPa
15%
10.9°
2
Windvlaag: -0.6 m/s
54%
 05:51     21:28    Daglengte: 15:37 Vrijdag 19 Aug
00:00
13°
1011.6 hPa
14%
11.2°
2
Windvlaag: -0.7 m/s
51%
01:00
13°
1011.2 hPa
14%
11.3°
3
Windvlaag: 1.4 m/s
55%
02:00
13°
1010.7 hPa
19%
11.3°
3
Windvlaag: 2.7 m/s
67%
03:00
13°
1010.2 hPa
21%
11.4°
3
Windvlaag: 3.5 m/s
60%
04:00
14°
1009.9 hPa
14%
11.3°
2
Windvlaag: 2.3 m/s
68%
05:00
14°
1008.1 hPa
27%
8.1°
2
Windvlaag: 1.8 m/s
95%
06:00
14°
1007.7 hPa
23%
6.5°
3
Windvlaag: 2.6 m/s
92%
07:00
14°
1007.7 hPa
21%
8.2°
2
Windvlaag: 3.2 m/s
92%
08:00
14°
1007.5 hPa
22%
9.7°
2
Windvlaag: 2.8 m/s
90%
09:00
15°
1007.2 hPa
27%
8.5°
1
Windvlaag: 2.3 m/s
72%
10:00
16°
1006.8 hPa
22%
8.1°
1
Windvlaag: 2.3 m/s
84%
11:00
17°
1006.7 hPa
84%
8.8°
1
Windvlaag: 1.7 m/s
82%
12:00
17°
1006.4 hPa
97%
8.1°
1
Windvlaag: 1.6 m/s
83%
13:00
16°
1007.2 hPa
35%
7.7°
2
Windvlaag: -1.2 m/s
81%
14:00
17°
1007.5 hPa 1.8 mm
30%
9.1°
3
Windvlaag: 2.3 m/s
89%
15:00
17°
1007.8 hPa 2.0 mm
22%
10.9°
3
Windvlaag: 5.6 m/s
88%
16:00
17°
1008.3 hPa 2.0 mm
23%
11.6°
4
Windvlaag: 6.3 m/s
81%
17:00
16°
1008.3 hPa 2.0 mm
21%
12.7°
3
Windvlaag: 4.7 m/s
69%
18:00
16°
1008.0 hPa
21%
13.1°
1
Windvlaag: 3.8 m/s
51%
19:00
16°
1008.0 hPa
92%
13.5°
2
Windvlaag: 3 m/s
82%
20:00
15°
1009.0 hPa 1.8 mm
100%
13.5°
3
Windvlaag: 2.6 m/s
93%
21:00
14°
1009.2 hPa 2.2 mm
100%
13.1°
2
Windvlaag: 1.6 m/s
96%
22:00
14°
1009.4 hPa 1.5 mm
100%
12.6°
2
Windvlaag: 2.1 m/s
90%
23:00
13°
1009.5 hPa 1.7 mm
100%
12.4°
2
Windvlaag: 2.2 m/s
89%
 05:54     21:25    Daglengte: 15:31 Zaterdag 20 Aug
00:00
13°
1010.1 hPa 2.8 mm
100%
12.1°
1
Windvlaag: 5.5 m/s
87%
01:00
13°
1010.2 hPa 2.5 mm
100%
11.9°
1
Windvlaag: 6.3 m/s
94%
02:00
13°
1009.9 hPa 2.3 mm
100%
11.3°
2
Windvlaag: 6.7 m/s
87%
03:00
13°
1009.7 hPa 1.9 mm
100%
10.7°
1
Windvlaag: 6.7 m/s
81%
04:00
13°
1009.3 hPa 1.7 mm
97%
10.4°
1
Windvlaag: 7 m/s
86%
05:00
13°
1009.2 hPa 1.7 mm
100%
10.0°
2
Windvlaag: 7.3 m/s
85%
06:00
12°
1009.3 hPa 3.1 mm
100%
9.4°
2
Windvlaag: 7.5 m/s
88%
07:00
12°
1009.1 hPa 4.7 mm
100%
8.8°
2
Windvlaag: 7.4 m/s
87%
08:00
13°
1009.1 hPa 2.4 mm
100%
8.1°
2
Windvlaag: 7.6 m/s
87%
09:00
14°
1008.9 hPa 4.8 mm
100%
8.7°
5
Windvlaag: 6.1 m/s
25%
10:00
15°
1008.8 hPa 4.8 mm
100%
8.5°
4
Windvlaag: 5.1 m/s
20%
11:00
16°
1008.6 hPa 4.8 mm
100%
9.1°
3
Windvlaag: 3.8 m/s
15%
Temp/Neerslag /Baro Onweer/Dauwpunt
    Temp Baro Neerslag Dauwpunt Wind Bewolking  
 05:46     21:34    Daglengte: 15:48 Vandaag
14:00
11°
1016.1 hPa 6.3 mm 6.7°
5
80%
17:00
12°
1016.3 hPa   7.0°
6
68%
20:00
12°
1016.6 hPa   7.5°
5
65%
23:00
12°
1016.3 hPa   8.0°
4
27%
 05:49     21:31    Daglengte: 15:42 Morgen
02:00
11°
1015.4 hPa   8.2°
3
7%
05:00
11°
1014.3 hPa   8.7°
2
5%
08:00
12°
1013.4 hPa   9.8°
2
15%
11:00
14°
1012.8 hPa   8.3°
2
41%
14:00
15°
1012.5 hPa   9.1°
3
36%
17:00
14°
1012.3 hPa   9.4°
4
82%
20:00
14°
1011.8 hPa   9.8°
1
79%
23:00
13°
1011.9 hPa   10.9°
2
54%
 05:51     21:28    Daglengte: 15:37 Vrijdag 19 Aug
02:00
13°
1010.7 hPa   11.3°
3
67%
05:00
14°
1008.1 hPa   8.1°
2
95%
08:00
14°
1007.5 hPa   9.7°
2
90%
11:00
17°
1006.7 hPa   8.8°
1
82%
14:00
17°
1007.5 hPa 1.8 mm 9.1°
3
89%
17:00
16°
1008.3 hPa 6.0 mm 12.7°
3
69%
20:00
15°
1009.0 hPa 1.8 mm 13.5°
3
93%
23:00
13°
1009.5 hPa 5.3 mm 12.4°
2
89%
 05:54     21:25    Daglengte: 15:31 Zaterdag 20 Aug
02:00
13°
1009.9 hPa 7.6 mm 11.3°
2
87%
05:00
13°
1009.2 hPa 5.3 mm 10.0°
2
85%
08:00
13°
1009.1 hPa 10.2 mm 8.1°
2
87%
11:00
16°
1008.6 hPa 14.3 mm 9.1°
3
15%
14:00
17°
1008.2 hPa 14.3 mm 9.2°
1
86%
17:00
15°
1009.6 hPa 17.8 mm 11.4°
3
0%
20:00
15°
1008.3 hPa 17.8 mm 11.1°
0
1%
23:00
14°
1006.2 hPa 17.8 mm 10.6°
1
1%
 05:57     21:21    Daglengte: 15:24 Zondag 21 Aug
02:00
14°
1004.5 hPa 17.8 mm 10.4°
3
1%
05:00
13°
1005.5 hPa 20.3 mm 11.3°
4
1%
08:00
14°
1005.1 hPa 21.2 mm 10.5°
5
1%
11:00
14°
1005.4 hPa 22.1 mm 10.6°
7
1%
14:00
14°
1005.9 hPa 22.9 mm 10.2°
5
1%
17:00
14°
1005.7 hPa 23.7 mm 9.6°
3
1%
20:00
14°
1005.8 hPa 24.3 mm 9.8°
3
1%
23:00
14°
1005.5 hPa 24.7 mm 9.1°
1
1%
 06:00     21:18    Daglengte: 15:18 Maandag 22 Aug
02:00
13°
1005.3 hPa 25.2 mm 8.3°
2
1%
05:00
13°
1005.3 hPa 25.8 mm 7.2°
2
1%
08:00
13°
1006.2 hPa 26.1 mm 7.3°
3
1%
11:00
14°
1006.8 hPa 26.3 mm 8.4°
4
1%
14:00
14°
1008.9 hPa 27.3 mm 9.4°
10
1%
17:00
13°
1011.4 hPa 28.5 mm 8.9°
10
0%
20:00
13°
1013.5 hPa 29.0 mm 8.8°
8
0%
23:00
12°
1015.5 hPa 29.6 mm 8.1°
7
0%
 06:02     21:15    Daglengte: 15:13 Dinsdag 23 Aug
02:00
12°
1017.3 hPa 29.7 mm 7.6°
4
0%
05:00
12°
1018.4 hPa 29.7 mm 6.9°
2
0%
08:00
12°
1019.7 hPa 29.7 mm 6.3°
2
0%
11:00
13°
1020.2 hPa 29.7 mm 6.6°
1
0%
14:00
14°
1020.3 hPa 29.7 mm 8.8°
3
1%
17:00
14°
1020.1 hPa 29.7 mm 10.3°
3
1%
20:00
14°
1019.9 hPa 29.7 mm 10.1°
2
1%
23:00
15°
1019.7 hPa 29.7 mm 9.4°
2
1%
 06:05     21:12    Daglengte: 15:07 Woensdag 24 Aug
02:00
16°
1019.1 hPa 29.7 mm 8.7°
3
1%
05:00
16°
1017.5 hPa 29.7 mm 8.3°
4
1%
08:00
16°
1016.6 hPa 29.7 mm 8.5°
4
1%
11:00
15°
1016.9 hPa   10.3°
1
1%
14:00
15°
1016.5 hPa 60.0 mm 11.2°
1
1%
20:00
15°
1015.7 hPa 61.5 mm 12.5°
3
1%
 06:08     21:08    Daglengte: 15:00 Donderdag 25 Aug
02:00
16°
1015.5 hPa 62.8 mm 12.0°
2
1%
08:00
16°
1015.7 hPa 63.0 mm 11.4°
2
1%
14:00
16°
1017.9 hPa 63.2 mm 12.6°
3
1%
20:00
16°
1019.2 hPa 64.7 mm 13.4°
2
1%
 06:10     21:05    Daglengte: 14:55 Vrijdag 26 Aug
02:00
15°
1020.9 hPa 66.0 mm 13.5°
1
1%
08:00
15°
1022.8 hPa 66.4 mm 13.4°
2
1%
14:00
15°
1023.2 hPa 66.5 mm 13.6°
5
1%
20:00
15°
1023.2 hPa 66.5 mm 13.8°
4
1%
 06:13     21:02    Daglengte: 14:49 Zaterdag 27 Aug
02:00
14°
1024.0 hPa 66.5 mm 13.7°
2
1%
08:00
14°
1022.4 hPa 1.6 mm 11.5°
0
69%
14:00
15°
1022.6 hPa 0.7 mm 11.6°
1
62%
20:00
14°
1023.2 hPa 0.4 mm 11.6°
1
58%
 06:16     20:58    Daglengte: 14:42 Zondag 28 Aug
02:00
13°
1024.1 hPa 0.3 mm 10.9°
1
56%
08:00
13°
1024.0 hPa 0.6 mm 10.8°
1
55%
14:00
15°
1024.0 hPa 0.8 mm 11.4°
1
57%
20:00
14°
1023.6 hPa 0.6 mm 11.6°
1
56%
 06:18     20:55    Daglengte: 14:37 Maandag 29 Aug
02:00
13°
1023.6 hPa 0.4 mm 11.1°
1
60%
08:00
14°
1023.1 hPa 0.4 mm 10.9°
1
62%
14:00
15°
1022.9 hPa 0.4 mm 11.4°
2
58%
20:00
14°
1022.8 hPa 0.4 mm 11.6°
1
64%
 06:21     20:52    Daglengte: 14:31 Dinsdag 30 Aug
02:00
13°
1023.0 hPa 0.8 mm 10.9°
0
61%
08:00
13°
1022.2 hPa 0.5 mm 10.8°
1
62%
14:00
15°
1021.1 hPa 0.4 mm 11.2°
1
59%
20:00
14°
1019.9 hPa 0.1 mm 11.2°
0
59%
 06:24     20:49    Daglengte: 14:25 Woensdag 31 Aug
02:00
14°
1018.9 hPa 0.1 mm 10.7°
1
64%
08:00
14°
1017.3 hPa 0.3 mm 10.7°
1
71%
14:00
15°
1016.5 hPa 0.4 mm 11.2°
1
74%
20:00
14°
1016.0 hPa 1.3 mm 11.1°
1
71%
 06:26     20:45    Daglengte: 14:19 Donderdag 01 Sep
02:00
13°
1015.6 hPa 0.4 mm 10.4°
2
68%
08:00
13°
1014.4 hPa 1.5 mm 10.3°
2
66%
  CAPE Lifted Index Hail Supercell Tornado SRH 3km CL BTM PRES CL TOP PRES Swiss DWD icon SMHI TS
 05:46     21:34    Daglengte: 15:48 Vandaag
12:00 24 J/kg 9.8 K 0 % 0 % 0 % 0 m²/s² 0 0 11 3
13:00 22 J/kg 9.4 K 0 % 0 % 0 % 0 m²/s² 0 0 12.25 61
14:00 17 J/kg 9.2 K 0 % 0 % 0 % 0 m²/s² 0 0 15.17 3
15:00 14 J/kg 9.2 K 0 % 0 % 0 % 0 m²/s² 0 0 17.21 3
16:00 13 J/kg 9.2 K 0 % 0 % 0 % 0 m²/s² 0 0 16.91 3
17:00 11 J/kg 9.4 K 0 % 0 % 0 % 0 m²/s² 0 0 17.44 3
18:00 11 J/kg 10.3 K 0 % 0 % 0 % 0 m²/s² 0 0 18.34 3
19:00 3 J/kg 11.0 K 0 % 0 % 0 % 0 m²/s² 0 0 19.07 3
20:00 1 J/kg 11.4 K 0 % 0 % 0 % 0 m²/s² 0 0 19.5 3
21:00 0 J/kg 11.8 K 0 % 0 % 0 % 0 m²/s² 0 0 19.93 2
22:00 0 J/kg 12.0 K 0 % 0 % 0 % 0 m²/s² 0 0 20.16 2
23:00 0 J/kg 12.2 K 0 % 0 % 0 % 0 m²/s² 0 0 20.06 2
 05:49     21:31    Daglengte: 15:42 Morgen
00:00 0 J/kg 12.3 K 0 % 0 % 0 % 0 m²/s² 0 0 20.16 2
01:00 0 J/kg 12.2 K 0 % 0 % 0 % 0 m²/s² 0 0 20.09 1
02:00 0 J/kg 11.7 K 0 % 0 % 0 % 0 m²/s² 0 0 19.62 0
03:00 0 J/kg 10.9 K 0 % 0 % 0 % 0 m²/s² 0 0 18.82 0
04:00 0 J/kg 9.7 K 0 % 0 % 0 % 0 m²/s² 0 0 17.62 0
05:00 0 J/kg 9.5 K 0 % 0 % 0 % 0 m²/s² 0 0 17.75 1
06:00 0 J/kg 10.3 K 0 % 0 % 0 % 0 m²/s² 0 0 18.91 0
07:00 0 J/kg 9.1 K 0 % 0 % 0 % 0 m²/s² 0 0 18.07 1
08:00 0 J/kg 8.3 K 0 % 0 % 0 % 0 m²/s² 0 0 17.63 0
09:00 0 J/kg 7.9 K 0 % 0 % 0 % 0 m²/s² 0 0 17.68 3
10:00 0 J/kg 7.8 K 0 % 0 % 0 % 0 m²/s² 0 0 18.09 3
11:00 0 J/kg 6.9 K 0 % 0 % 0 % 0 m²/s² 0 0 17.19 2
12:00 0 J/kg 6.7 K 0 % 0 % 0 % 0 m²/s² 0 0 16.99 2
13:00 0 J/kg 6.4 K 0 % 0 % 0 % 0 m²/s² 0 0 16.69 3
14:00 0 J/kg 5.4 K 0 % 0 % 0 % 0 m²/s² 0 0 16.23 2
15:00 0 J/kg 4.9 K 0 % 0 % 0 % 0 m²/s² 0 0 16.33 3
16:00 0 J/kg 4.9 K 0 % 0 % 0 % 0 m²/s² 0 0 15.7 3
17:00 0 J/kg 4.7 K 0 % 0 % 0 % 0 m²/s² 0 0 14.99 3
18:00 0 J/kg 4.8 K 0 % 0 % 0 % 0 m²/s² 0 0 15.09 3
19:00 0 J/kg 5.0 K 0 % 0 % 0 % 0 m²/s² 0 0 14.81 3
20:00 0 J/kg 5.2 K 0 % 0 % 0 % 0 m²/s² 0 0 14.53 3
21:00 0 J/kg 5.5 K 0 % 0 % 0 % 0 m²/s² 0 0 14.41 3
22:00 0 J/kg 6.5 K 0 % 0 % 0 % 0 m²/s² 0 0 14.15 3
23:00 0 J/kg 7.4 K 0 % 0 % 0 % 0 m²/s² 0 0 11.75 3
 05:51     21:28    Daglengte: 15:37 Vrijdag 19 Aug
00:00 0 J/kg 8.2 K 0 % 0 % 0 % 0 m²/s² 0 0 13.15 3
01:00 0 J/kg 8.4 K 0 % 0 % 0 % 0 m²/s² 0 0 11.58 2
02:00 0 J/kg 8.2 K 0 % 0 % 0 % 0 m²/s² 0 0 9.19 3
03:00 0 J/kg 8.3 K 0 % 0 % 0 % 0 m²/s² 0 0 8.51 2
04:00 0 J/kg 7.8 K 0 % 0 % 0 % 0 m²/s² 0 0 7.89 3
05:00 0 J/kg 6.6 K 0 % 0 % 0 % 0 m²/s² 0 0 6.63 3
06:00 0 J/kg 5.6 K 0 % 0 % 0 % 0 m²/s² 0 0 5.69 3
07:00 0 J/kg 5.7 K 0 % 0 % 0 % 0 m²/s² 0 0 5.94 3
08:00 0 J/kg 5.2 K 0 % 0 % 0 % 0 m²/s² 0 0 5.71 3
09:00 0 J/kg 4.7 K 0 % 0 % 0 % 0 m²/s² 0 0 5.45 2
10:00 0 J/kg 4.5 K 0 % 0 % 0 % 0 m²/s² 0 0 5.58 3
11:00 0 J/kg 4.4 K 0 % 0 % 0 % 0 m²/s² 0 0 5.75 3
12:00 0 J/kg 4.8 K 0 % 0 % 0 % 0 m²/s² 0 0 6.78 61
13:00 0 J/kg 4.7 K 0 % 0 % 0 % 0 m²/s² 0 0 7.19 3
14:00 0 J/kg 4.3 K 0 % 0 % 0 % 0 m²/s² 0 0 5.44 3
15:00 0 J/kg 4.0 K 0 % 0 % 0 % 0 m²/s² 0 0 4.78 2
16:00 0 J/kg 3.3 K 0 % 0 % 0 % 0 m²/s² 0 0 4.59 2
17:00 0 J/kg 2.1 K 0 % 0 % 0 % 0 m²/s² 0 0 2.67 2
18:00 0 J/kg 1.9 K 0 % 0 % 0 % 0 m²/s² 0 0 5.32 2
19:00 0 J/kg 2.7 K 0 % 0 % 0 % 0 m²/s² 0 0 7.26 3
20:00 0 J/kg 4.6 K 0 % 0 % 0 % 0 m²/s² 0 0 9.79 61
21:00 0 J/kg 5.7 K 0 % 0 % 0 % 0 m²/s² 0 0 10.89 61
22:00 0 J/kg 6.8 K 0 % 0 % 0 % 0 m²/s² 0 0 12.71 61
23:00 6 J/kg 6.3 K 0 % 0 % 0 % 0 m²/s² 0 0 13.38 61
 05:54     21:25    Daglengte: 15:31 Zaterdag 20 Aug
00:00 22 J/kg 5.9 K 0 % 0 % 0 % 0 m²/s² 0 0 13.79 61
01:00 17 J/kg 6.0 K 0 % 0 % 0 % 0 m²/s² 0 0 12.66 61
02:00 1 J/kg 7.1 K 0 % 0 % 0 % 0 m²/s² 0 0 12.11 61
03:00 0 J/kg 7.4 K 0 % 0 % 0 % 0 m²/s² 0 0 12.29 61
04:00 0 J/kg 7.8 K 0 % 0 % 0 % 0 m²/s² 0 0 13.05 3
05:00 0 J/kg 8.2 K 0 % 0 % 0 % 0 m²/s² 0 0 14.41 3
06:00 0 J/kg 8.1 K 0 % 0 % 0 % 0 m²/s² 0 0 14.91 61
07:00 0 J/kg 8.0 K 0 % 0 % 0 % 0 m²/s² 0 0 15.05 63
08:00 0 J/kg 7.8 K 0 % 0 % 0 % 0 m²/s² 0 0 13.83 61
09:00 0 J/kg 8.0 K 0 % 0 % 0 % 0 m²/s² 0 0 14.42
10:00 2 J/kg 7.6 K 0 % 0 % 0 % 0 m²/s² 0 0 13.81
11:00 4 J/kg 7.1 K 0 % 0 % 0 % 0 m²/s² 0 0 13.28
Temp Baro Wind Neerslag
  EWN Forecast EWN WRFDA DWD ICON FMI HIRLAM MET Norway GFS
 05:46     21:34    Daglengte: 15:48 Vandaag
14:00 11.5° 1016.1 hPa 5.4 m/s 6.3 mm 11.2° 1014.9 hPa 6.5 m/s 12.9 mm 11.4° 1016.0 hPa 4.1 m/s 8.7 mm 11.9° 1016.7 hPa 5.3 m/s 0.0 mm 11.7° 1015.8 hPa 7.1 m/s
17:00 11.9° 1016.3 hPa 5.5 m/s 0.0 mm 11.9° 1015.3 hPa 6.6 m/s 13.2 mm 11.8° 1016.3 hPa 3.6 m/s 0.0 mm 12.0° 1016.9 hPa 5.7 m/s 0.0 mm 12.0° 1016.7 hPa 7.7 m/s
20:00 11.9° 1016.6 hPa 5.2 m/s 0.0 mm 11.5° 1015.6 hPa 5.7 m/s 13.3 mm 11.9° 1016.7 hPa 3.9 m/s 0.0 mm 11.9° 1016.8 hPa 5.8 m/s 0.0 mm 12.1° 1016.1 hPa 7.0 m/s
23:00 11.6° 1016.3 hPa 4.4 m/s 0.0 mm 9.5° 1015.3 hPa 5.1 m/s 13.3 mm 11.4° 1016.4 hPa 2.1 m/s 0.0 mm 11.8° 1016.4 hPa 5.2 m/s 0.0 mm 12.2° 1016.0 hPa 4.8 m/s
 05:49     21:31    Daglengte: 15:42 Morgen
02:00 11.2° 1015.4 hPa 3.4 m/s 0.0 mm 8.8° 1014.0 hPa 5.2 m/s 13.3 mm 10.9° 1015.6 hPa 1.5 m/s 0.0 mm 11.4° 1015.9 hPa 3.4 m/s 0.0 mm 12.0° 1015.1 hPa 4.2 m/s
05:00 10.7° 1014.3 hPa 1.8 m/s 0.0 mm 10.0° 1011.9 hPa 2.3 m/s 13.3 mm 10.3° 1014.7 hPa 1.2 m/s 0.0 mm 10.6° 1014.9 hPa 1.8 m/s 0.0 mm 11.7° 1013.3 hPa 2.0 m/s
08:00 12.0° 1013.4 hPa 1.8 m/s 0.0 mm 12.9° 1011.5 hPa 3.2 m/s 13.3 mm 11.0° 1013.6 hPa 1.6 m/s 0.0 mm 12.2° 1014.4 hPa 1.9 m/s 0.0 mm 12.6° 1013.0 hPa 1.6 m/s
11:00 13.9° 1012.8 hPa 1.6 m/s 0.0 mm 16.3° 1010.0 hPa 2.3 m/s 13.3 mm 13.5° 1013.1 hPa 0.1 m/s 0.0 mm 14.8° 1013.8 hPa 3.2 m/s 0.0 mm 13.9° 1012.3 hPa 1.6 m/s
14:00 14.9° 1012.5 hPa 3.2 m/s 0.0 mm 14.9° 1009.5 hPa 3.2 m/s 13.3 mm 15.0° 1012.9 hPa 2.9 m/s 0.0 mm 15.6° 1013.3 hPa 5.0 m/s 0.0 mm 13.7° 1012.0 hPa 3.3 m/s
17:00 14.1° 1012.3 hPa 4.0 m/s 0.0 mm 14.5° 1009.4 hPa 2.3 m/s 13.3 mm 14.1° 1012.9 hPa 3.4 m/s 0.0 mm 14.3° 1012.8 hPa 4.2 m/s 0.0 mm 13.5° 1011.8 hPa 5.1 m/s
20:00 13.7° 1011.8 hPa 0.7 m/s 0.0 mm 13.7° 1009.0 hPa 1.9 m/s 13.3 mm 13.2° 1012.8 hPa 1.2 m/s 0.0 mm 13.9° 1012.4 hPa 0.4 m/s 0.0 mm 13.5° 1011.5 hPa 2.3 m/s
23:00 13.1° 1011.9 hPa 1.9 m/s 0.0 mm 12.7° 1009.8 hPa 2.0 m/s 13.3 mm 12.9° 1012.5 hPa 1.8 m/s 0.0 mm 13.1° 1012.8 hPa 1.6 m/s 0.0 mm 13.4° 1011.6 hPa 2.5 m/s
 05:51     21:28    Daglengte: 15:37 Vrijdag 19 Aug
02:00 13.0° 1010.7 hPa 3.2 m/s 0.0 mm 12.6° 1008.0 hPa 3.1 m/s 13.3 mm 12.7° 1011.4 hPa 3.2 m/s 0.0 mm 13.0° 1011.6 hPa 2.7 m/s 0.0 mm 13.5° 1010.4 hPa 1.7 m/s
05:00 13.8° 1008.1 hPa 2.4 m/s 0.0 mm 14.2° 1007.9 hPa 4.3 m/s 13.3 mm 13.6° 1010.1 hPa 2.7 m/s 0.0 mm 13.9° 1010.0 hPa 0.4 m/s
08:00 14.4° 1007.5 hPa 1.9 m/s 0.0 mm 14.6° 1007.3 hPa 2.3 m/s 13.3 mm 14.7° 1009.4 hPa 2.1 m/s 0.0 mm 14.4° 1009.6 hPa 1.4 m/s
11:00 16.6° 1006.7 hPa 1.4 m/s 0.0 mm 17.9° 1006.4 hPa 2.1 m/s 13.3 mm 16.5° 1008.9 hPa 0.6 m/s 0.0 mm 14.9° 1008.6 hPa 2.4 m/s
14:00 17.1° 1007.5 hPa 2.5 m/s 1.8 mm 19.2° 1005.0 hPa 2.6 m/s 13.3 mm 17.1° 1008.8 hPa 0.6 m/s 0.1 mm 15.2° 1007.9 hPa 1.6 m/s
17:00 15.8° 1008.3 hPa 3.0 m/s 6.0 mm 14.9° 1006.3 hPa 2.8 m/s 13.5 mm 17.0° 1008.5 hPa 1.7 m/s 0.0 mm 14.9° 1009.1 hPa 4.5 m/s
20:00 14.7° 1009.0 hPa 2.9 m/s 1.8 mm 14.0° 1006.0 hPa 6.1 m/s 14.1 mm 14.6° 1009.5 hPa 2.9 m/s 0.4 mm 14.1° 1009.3 hPa 1.3 m/s
23:00 13.5° 1009.5 hPa 1.9 m/s 5.3 mm 11.5° 1007.7 hPa 3.6 m/s 14.2 mm 13.7° 1010.7 hPa 1.4 m/s 3.5 mm 14.0° 1009.9 hPa 1.7 m/s
 05:54     21:25    Daglengte: 15:31 Zaterdag 20 Aug
02:00 12.7° 1009.9 hPa 1.6 m/s 7.6 mm 11.2° 1008.6 hPa 4.6 m/s 14.3 mm 13.1° 1010.2 hPa 0.9 m/s 4.2 mm 13.0° 1010.2 hPa 3.2 m/s
05:00 12.8° 1009.2 hPa 2.0 m/s 5.3 mm 11.0° 1008.8 hPa 5.0 m/s 14.3 mm 13.2° 1009.3 hPa 1.2 m/s 0.8 mm 13.0° 1010.2 hPa 1.1 m/s
08:00 12.5° 1009.1 hPa 1.8 m/s 10.2 mm 13.0° 1008.9 hPa 5.1 m/s 14.3 mm 12.4° 1009.1 hPa 1.0 m/s 8.1 mm 13.3° 1010.4 hPa 1.5 m/s
11:00 15.6° 1008.6 hPa 2.5 m/s 14.3 mm 15.6° 1008.6 hPa 2.5 m/s 14.3 mm 14.1° 1010.2 hPa 3.6 m/s
14:00 16.7° 1008.2 hPa 0.9 m/s 14.3 mm 16.7° 1008.2 hPa 0.9 m/s 14.3 mm 15.1° 1009.9 hPa 3.0 m/s
17:00 14.6° 1009.6 hPa 2.6 m/s 17.8 mm 14.6° 1009.6 hPa 2.6 m/s 17.8 mm
20:00 14.5° 1008.3 hPa 0.4 m/s 17.8 mm 14.5° 1008.3 hPa 0.4 m/s 17.8 mm
23:00 14.3° 1006.2 hPa 1.4 m/s 17.8 mm 14.3° 1006.2 hPa 1.4 m/s 17.8 mm
 05:57     21:21    Daglengte: 15:24 Zondag 21 Aug
02:00 14.4° 1004.5 hPa 3.2 m/s 17.8 mm 14.4° 1004.5 hPa 3.2 m/s 17.8 mm
05:00 12.9° 1005.5 hPa 4.4 m/s 20.3 mm 12.9° 1005.5 hPa 4.4 m/s 20.3 mm
08:00 13.7° 1005.1 hPa 4.7 m/s 21.2 mm 13.7° 1005.1 hPa 4.7 m/s 21.2 mm
11:00 14.1° 1005.4 hPa 6.5 m/s 22.1 mm 14.1° 1005.4 hPa 6.5 m/s 22.1 mm
14:00 14.4° 1005.9 hPa 5.0 m/s 22.9 mm 14.4° 1005.8 hPa 5.0 m/s 22.9 mm
17:00 14.1° 1005.7 hPa 2.9 m/s 23.7 mm 14.1° 1005.7 hPa 2.9 m/s 23.7 mm
20:00 13.7° 1005.8 hPa 3.0 m/s 24.3 mm 13.7° 1005.8 hPa 3.0 m/s 24.3 mm
23:00 13.6° 1005.5 hPa 0.7 m/s 24.7 mm 13.6° 1005.5 hPa 0.7 m/s 24.7 mm
 06:00     21:18    Daglengte: 15:18 Maandag 22 Aug
02:00 13.0° 1005.3 hPa 1.6 m/s 25.2 mm 13.0° 1005.3 hPa 1.6 m/s 25.2 mm
05:00 12.9° 1005.3 hPa 2.4 m/s 25.8 mm 12.9° 1005.3 hPa 2.4 m/s 25.8 mm
08:00 13.2° 1006.2 hPa 2.7 m/s 26.1 mm 13.2° 1006.2 hPa 2.7 m/s 26.1 mm
11:00 14.4° 1006.8 hPa 4.0 m/s 26.3 mm 14.4° 1006.8 hPa 4.0 m/s 26.3 mm
14:00 13.7° 1008.9 hPa 9.7 m/s 27.3 mm 13.7° 1008.9 hPa 9.7 m/s 27.3 mm
17:00 13.2° 1011.4 hPa 10.1 m/s 28.5 mm 13.2° 1011.4 hPa 10.1 m/s 28.5 mm
20:00 12.5° 1013.5 hPa 8.2 m/s 29.0 mm 12.5° 1013.5 hPa 8.2 m/s 29.0 mm
23:00 12.3° 1015.5 hPa 7.4 m/s 29.6 mm 12.3° 1015.5 hPa 7.4 m/s 29.6 mm
 06:02     21:15    Daglengte: 15:13 Dinsdag 23 Aug
02:00 12.0° 1017.3 hPa 4.4 m/s 29.7 mm 12.0° 1017.3 hPa 4.4 m/s 29.7 mm
05:00 11.7° 1018.4 hPa 2.1 m/s 29.7 mm 11.7° 1018.4 hPa 2.1 m/s 29.7 mm
08:00 11.8° 1019.7 hPa 2.4 m/s 29.7 mm 11.8° 1019.7 hPa 2.4 m/s 29.7 mm
11:00 13.0° 1020.2 hPa 1.2 m/s 29.7 mm 13.0° 1020.3 hPa 1.2 m/s 29.7 mm
14:00 13.9° 1020.3 hPa 3.4 m/s 29.7 mm 13.9° 1020.3 hPa 3.4 m/s 29.7 mm
17:00 14.3° 1020.1 hPa 3.5 m/s 29.7 mm 14.3° 1020.1 hPa 3.5 m/s 29.7 mm
20:00 14.4° 1019.9 hPa 1.6 m/s 29.7 mm 14.4° 1019.9 hPa 1.6 m/s 29.7 mm
23:00 15.0° 1019.7 hPa 1.8 m/s 29.7 mm 15.0° 1019.7 hPa 1.8 m/s 29.7 mm
 06:05     21:12    Daglengte: 15:07 Woensdag 24 Aug
02:00 15.7° 1019.1 hPa 3.3 m/s 29.7 mm 15.7° 1019.1 hPa 3.3 m/s 29.7 mm
05:00 15.7° 1017.5 hPa 4.1 m/s 29.7 mm 15.7° 1017.5 hPa 4.1 m/s 29.7 mm
08:00 16.2° 1016.6 hPa 4.4 m/s 29.7 mm 16.2° 1016.6 hPa 4.4 m/s 29.7 mm
11:00 15.1° 1016.9 hPa 1.5 m/s 30.0 mm 15.1° 1016.9 hPa 1.5 m/s 30.0 mm
14:00 15.4° 1016.5 hPa 1.3 m/s 30.1 mm 15.4° 1016.5 hPa 1.3 m/s 30.1 mm
20:00 14.9° 1015.7 hPa 3.2 m/s 31.2 mm 14.9° 1015.7 hPa 3.2 m/s 31.2 mm
 06:08     21:08    Daglengte: 15:00 Donderdag 25 Aug
02:00 15.6° 1015.5 hPa 1.6 m/s 31.4 mm 15.6° 1015.5 hPa 1.6 m/s 31.4 mm
08:00 16.0° 1015.7 hPa 2.2 m/s 31.6 mm 16.0° 1015.7 hPa 2.2 m/s 31.6 mm
14:00 16.0° 1017.9 hPa 3.1 m/s 31.6 mm 16.0° 1017.9 hPa 3.1 m/s 31.6 mm
20:00 15.8° 1019.2 hPa 2.2 m/s 32.6 mm 15.8° 1019.2 hPa 2.2 m/s 32.6 mm
 06:10     21:05    Daglengte: 14:55 Vrijdag 26 Aug
02:00 15.0° 1020.9 hPa 1.2 m/s 33.2 mm 15.0° 1020.9 hPa 1.2 m/s 33.2 mm
08:00 15.2° 1022.8 hPa 2.1 m/s 33.2 mm 15.2° 1022.8 hPa 2.1 m/s 33.2 mm
14:00 15.2° 1023.2 hPa 4.5 m/s 33.2 mm 15.2° 1023.2 hPa 4.5 m/s 33.2 mm
20:00 14.9° 1023.2 hPa 3.9 m/s 33.2 mm 14.9° 1023.2 hPa 3.9 m/s 33.2 mm
 06:13     21:02    Daglengte: 14:49 Zaterdag 27 Aug
02:00 14.4° 1024.0 hPa 1.7 m/s 33.2 mm 14.4° 1024.0 hPa 1.7 m/s 33.2 mm
08:00 13.7° 1022.4 hPa 0.3 m/s 1.6 mm
14:00 15.0° 1022.6 hPa 1.4 m/s 0.7 mm
20:00 14.0° 1023.2 hPa 0.6 m/s 0.4 mm
 06:16     20:58    Daglengte: 14:42 Zondag 28 Aug
02:00 13.4° 1024.1 hPa 0.7 m/s 0.3 mm
08:00 13.5° 1024.0 hPa 0.9 m/s 0.6 mm
14:00 15.0° 1024.0 hPa 1.2 m/s 0.8 mm
20:00 14.1° 1023.6 hPa 0.6 m/s 0.6 mm
 06:18     20:55    Daglengte: 14:37 Maandag 29 Aug
02:00 13.4° 1023.6 hPa 0.7 m/s 0.4 mm
08:00 13.6° 1023.1 hPa 0.9 m/s 0.4 mm
14:00 15.4° 1022.9 hPa 1.6 m/s 0.4 mm
20:00 13.9° 1022.8 hPa 0.7 m/s 0.4 mm
 06:21     20:52    Daglengte: 14:31 Dinsdag 30 Aug
02:00 13.0° 1023.0 hPa 0.1 m/s 0.8 mm
08:00 13.3° 1022.2 hPa 0.6 m/s 0.5 mm
14:00 15.0° 1021.1 hPa 1.5 m/s 0.4 mm
20:00 14.1° 1019.9 hPa 0.3 m/s 0.1 mm
 06:24     20:49    Daglengte: 14:25 Woensdag 31 Aug
02:00 13.6° 1018.9 hPa 0.8 m/s 0.1 mm
08:00 13.9° 1017.3 hPa 1.4 m/s 0.3 mm
14:00 15.2° 1016.5 hPa 1.2 m/s 0.4 mm
20:00 13.9° 1016.0 hPa 1.5 m/s 1.3 mm
 06:26     20:45    Daglengte: 14:19 Donderdag 01 Sep
02:00 13.1° 1015.6 hPa 1.7 m/s 0.4 mm
08:00 13.1° 1014.4 hPa 1.9 m/s 1.5 mm
FMI Hirlam - 7.5 km EWN WRFDA - 12 km DWD ICON - 7 km GFS - 25 km Basiskaart






























































Updatetijd (Europe/Amsterdam) Resolutie Lengte Stap
FMI Hirlam 07:15, 13:15, 19:15, 01:15 7.5 km 49h 1h
EWN WRFDA 10:15, 16:15, 22:15, 04:15 12 km 73h 1h
DWD ICON 06:00, 12:00, 18:00, 00:00 7 km 75h 1h
GFS 08:15, 14:15, 20:15, 02:15 25 km 237h 3h
30+ mm
25-30 mm
20-25 mm
15-20 mm
10-15 mm
6-10 mm
4-6 mm
2-4 mm
1-2 mm
0.5-1 mm
0.2-0.5 mm
0.1-0.2 mm
30+ mm
25-30 mm
20-25 mm
15-20 mm
10-15 mm
6-10 mm
4-6 mm
2-4 mm
1-2 mm
0.5-1 mm
0.2-0.5 mm
0.1-0.2 mm
Sneeuwval
Natte sneeuw
Hagel
Vorst
30+ mm
25-30 mm
20-25 mm
15-20 mm
10-15 mm
6-10 mm
4-6 mm
2-4 mm
1-2 mm
0.5-1 mm
0.2-0.5 mm
0.1-0.2 mm
Sneeuwval
Natte sneeuw
Hagel
Vorst
Onweer
50 mm
40 mm
30 mm
26 mm
22 mm
18 mm
14 mm
10 mm
9 mm
8 mm
7 mm
6 mm
5 mm
4.5 mm
4 mm
3.5 mm
3 mm
2.5 mm
2 mm
1.5 mm
1 mm
0.8 mm
0.6 mm
0.4 mm
0.2 mm
0.05 mm
35°
30°
25°
20°
15°
10°
-5°
-10°
-15°
-20°
-25°
-30°
-35°
33> m/s
29 m/s
25 m/s
21 m/s
17 m/s
14 m/s
11 m/s
8 m/s
5 m/s
3 m/s
0 m/s
2600 J/kg
2400 J/kg
2200 J/kg
2000 J/kg
1800 J/kg
1600 J/kg
1400 J/kg
1200 J/kg
1000 J/kg
800 J/kg
600 J/kg
400 J/kg
200 J/kg
70 dBZ
65 dBZ
60 dBZ
55 dBZ
50 dBZ
45 dBZ
40 dBZ
35 dBZ
30 dBZ
25 dBZ
20 dBZ
15 dBZ
10 dBZ
5 dBZ
-1 K
-2 K
-3 K
-4 K
-5 K
-6 K
-7 K
-8 K
-9 K
950 m²/s²
900 m²/s²
850 m²/s²
800 m²/s²
750 m²/s²
700 m²/s²
650 m²/s²
600 m²/s²
550 m²/s²
500 m²/s²
450 m²/s²
400 m²/s²
350 m²/s²
300 m²/s²
250 m²/s²
200 m²/s²
150 m²/s²
100 m²/s²
46 m/s
44 m/s
42 m/s
40 m/s
38 m/s
36 m/s
34 m/s
32 m/s
30 m/s
28 m/s
26 m/s
24 m/s
22 m/s
20 m/s
16 m/s
12 m/s
8 m/s
4 m/s
30 m/s
28 m/s
26 m/s
24 m/s
22 m/s
20 m/s
18 m/s
16 m/s
14 m/s
12 m/s
10 m/s
8 m/s
6 m/s
4 m/s
2 m/s
3.0
2.8
2.6
2.4
2.2